Wheeling, WV

8:19 AM EST on December 14, 2019 (GMT -0500)
Wheeling-Ohio County

Weather History for KHLG - November, 2019

Change the Weather History Date:

Wednesday, November 13, 2019

  Actual Average Record
Temperature  
Mean Temperature 20 °F 44 °F  
Max Temperature 27 °F 52 °F 71 °F (1909)
Min Temperature 12 °F 36 °F 12 °F (1911)
Degree Days  
Heating Degree Days 45 21  
Month to date heating degree days 352 244  
Since 1 July heating degree days 623 718  
Cooling Degree Days 0 0  
Month to date cooling degree days 0 0  
Year to date cooling degree days 986 689  
Moisture  
Dew Point 11 °F    
Average Humidity 68    
Maximum Humidity 88    
Minimum Humidity 48    
Precipitation  
Precipitation 0.00 in 0.10 in 0.64 in (1937)
Month to date precipitation 0.64 1.35  
Year to date precipitation 34.72 33.67  
Sea Level Pressure  
Sea Level Pressure 30.38 in    
Wind  
Wind Speed 5 mph (SSW)    
Max Wind Speed 9 mph    
Max Gust Speed 13 mph    
Visibility 10 miles    
Events      
T = Trace of Precipitation, MM = Missing Value Source: NWS Daily Summary

Daily Weather History Graph

Daily Weather History Graph

Search for Another Location

Airport or City:

Astronomy

Nov. 13, 2019 Rise Set
Actual Time 7:05 AM EST 5:07 PM EST
Civil Twilight 6:36 AM EST 5:36 PM EST
Nautical Twilight 6:03 AM EST 6:09 PM EST
Astronomical Twilight 5:31 AM EST 6:41 PM EST
Moon 6:10 PM EST (11/13) 7:57 AM EST (11/13)
Length of Visible Light 11h 00m
Length of Day
10h 02m
Full, 99% of the Moon is Illuminated
Nov 13
Full
Nov 19
Last Quarter
Nov 26
New
Dec 4
First Quarter
Dec 12
Full

Hourly Weather History & Observations

Time (EST) Temp. Windchill Dew Point Humidity Pressure Visibility Wind Dir Wind Speed Gust Speed Precip Events Conditions
12:53 AM 15.1 °F 9.4 °F 9.0 °F 77% 30.40 in 10.0 mi West 3.5 mph - N/A   Clear
1:53 AM 15.1 °F 5.2 °F 9.0 °F 77% 30.39 in 10.0 mi West 6.9 mph - N/A   Clear
2:53 AM 15.1 °F 6.4 °F 10.0 °F 80% 30.40 in 10.0 mi West 5.8 mph - N/A   Clear
3:53 AM 14.0 °F 5.1 °F 9.0 °F 80% 30.41 in 10.0 mi West 5.8 mph - N/A   Clear
4:53 AM 14.0 °F 6.5 °F 9.0 °F 80% 30.43 in 10.0 mi West 4.6 mph - N/A   Clear
5:53 AM 12.9 °F 5.2 °F 9.0 °F 84% 30.43 in 10.0 mi West 4.6 mph - N/A   Clear
6:53 AM 12.9 °F 5.2 °F 9.0 °F 84% 30.44 in 10.0 mi SW 4.6 mph - N/A   Clear
7:53 AM 12.9 °F 6.9 °F 10.0 °F 88% 30.46 in 10.0 mi SW 3.5 mph - N/A   Clear
8:53 AM 16.0 °F 10.4 °F 12.0 °F 84% 30.47 in 10.0 mi SSW 3.5 mph - N/A   Clear
9:53 AM 19.9 °F 13.4 °F 10.9 °F 68% 30.46 in 10.0 mi West 4.6 mph - N/A   Clear
10:53 AM 21.9 °F 15.7 °F 12.0 °F 66% 30.48 in 10.0 mi South 4.6 mph - N/A   Clear
11:53 AM 23.0 °F 13.9 °F 9.0 °F 55% 30.45 in 10.0 mi SE 8.1 mph - N/A   Clear
12:53 PM 25.0 °F 17.1 °F 10.0 °F 53% 30.41 in 10.0 mi SSW 6.9 mph - N/A   Clear
1:53 PM 26.1 °F 21.9 °F 10.0 °F 51% 30.39 in 10.0 mi WSW 3.5 mph - N/A   Clear
2:53 PM 26.1 °F 19.4 °F 9.0 °F 49% 30.36 in 10.0 mi Variable 5.8 mph - N/A   Clear
3:53 PM 26.1 °F 20.5 °F 10.0 °F 51% 30.37 in 10.0 mi SE 4.6 mph - N/A   Clear
4:53 PM 25.0 °F 19.3 °F 12.0 °F 58% 30.37 in 10.0 mi South 4.6 mph - N/A   Clear
5:53 PM 25.0 °F 19.3 °F 14.0 °F 63% 30.34 in 10.0 mi SE 4.6 mph - N/A   Clear
6:53 PM 25.0 °F 17.1 °F 15.1 °F 66% 30.32 in 10.0 mi SE 6.9 mph - N/A   Clear
7:53 PM 25.0 °F 17.1 °F 14.0 °F 63% 30.31 in 10.0 mi SE 6.9 mph - N/A   Clear
8:53 PM 24.1 °F 17.0 °F 14.0 °F 65% 30.30 in 10.0 mi SSE 5.8 mph - N/A   Clear
9:53 PM 24.1 °F 18.2 °F 14.0 °F 65% 30.28 in 10.0 mi SE 4.6 mph - N/A   Clear
10:53 PM 24.1 °F 18.2 °F 15.1 °F 69% 30.26 in 10.0 mi SE 4.6 mph - N/A   Clear
11:53 PM 25.0 °F 18.1 °F 15.1 °F 66% 30.24 in 10.0 mi SSE 5.8 mph - N/A   Clear